Overview Statistics Trail Chart Weather Telemetry Raw packets
 

This is the latest recevied weather packets stored in our database for station/object KD4EED. If no packets are shown the sender has not sent any weather packets the latest 10 day(s).

<< 54 55 56 57 58 59 60 >>
Time Temp. Humidity Pressure Rain* Wind** Luminosity Snow
1788304689 27.22° C 54% 1012 hPa - - 358 W/m² -
1788304385 27.22° C 54% 1011.9 hPa - - 370 W/m² -
1788304081 27.78° C 52% 1012.1 hPa - - 384 W/m² -
1788303780 27.78° C 52% 1011.7 hPa - - 394 W/m² -
1788303476 27.22° C 54% 1011.8 hPa - - 402 W/m² -
1788303170 27.22° C 53% 1012 hPa - - 406 W/m² -
1788302866 27.22° C 52% 1011.9 hPa - - 414 W/m² -
1788302562 27.78° C 53% 1012 hPa - - 423 W/m² -
1788302258 27.78° C 53% 1011.9 hPa - - 431 W/m² -
1788301958 27.78° C 52% 1012 hPa - - 438 W/m² -
1788301654 27.78° C 52% 1011.9 hPa - - 451 W/m² -
1788301350 27.78° C 51% 1011.9 hPa - - 461 W/m² -
1788301046 27.78° C 51% 1012 hPa - - 476 W/m² -
1788300741 28.33° C 50% 1012.1 hPa - - 489 W/m² -
1788300440 28.33° C 51% 1012.1 hPa - - 503 W/m² -
1788300135 28.89° C 50% 1012.1 hPa - - 521 W/m² -
1788299834 28.33° C 50% 1012.2 hPa - - 532 W/m² -
1788299534 28.33° C 50% 1012.2 hPa - - 549 W/m² -
1788299232 28.89° C 50% 1012.1 hPa - - 560 W/m² -
1788298926 28.89° C 49% 1012.3 hPa - - 570 W/m² -
1788298626 28.89° C 49% 1012.3 hPa - - 583 W/m² -
1788298321 28.33° C 49% 1012.4 hPa - - 598 W/m² -
1788298020 28.33° C 51% 1012.4 hPa - - 605 W/m² -
1788297717 28.89° C 49% 1012.5 hPa - - 613 W/m² -
1788297416 28.33° C 51% 1012.4 hPa - - 618 W/m² -

* Rain since midnight (hover to see other rain measurements)
** Current wind speed in m/s (hover to see current wind gust speed)